Weather History for Raton, NM

Change the Weather History Date:

Monday, December 9, 2013

  Actual Average (KTAD) Record (KTAD)
Temperature  
Mean Temperature 18 °F 32 °F  
Max Temperature 28 °F 46 °F 71 °F (1996)
Min Temperature 6 °F 18 °F -10 °F (1978)
Degree Days  
Heating Degree Days 47 33  
Month to date heating degree days 290  
Since 1 July heating degree days 1523  
Cooling Degree Days 0 0  
Month to date cooling degree days 0  
Year to date cooling degree days 719  
Moisture  
Dew Point 1 °F    
Average Humidity 55    
Maximum Humidity 81    
Minimum Humidity 17    
Precipitation  
Precipitation 0.00 in 0.02 in 0.77 in (1961)
Month to date precipitation 0.17  
Year to date precipitation 13.47  
Sea Level Pressure  
Sea Level Pressure 30.12 in    
Wind  
Wind Speed 8 mph (WSW)    
Max Wind Speed 17 mph    
Max Gust Speed 32 mph    
Visibility 9 miles    
Events Snow    
T = Trace of Precipitation, MM = Missing Value Source: NWS Daily Summary

Daily Weather History Graph

Daily Weather History Graph

Search for Another Location

Airport:

Trip Planner

Search our weather history database for the weather conditions in past years. The results will help you decide how hot, cold, wet, or windy it might be!

Date:

Astronomy

Dec. 09, 2013 Rise Set
Actual Time 6:59 AM MST 4:41 PM MST
Civil Twilight 6:30 AM MST 5:10 PM MST
Nautical Twilight 5:58 AM MST 5:42 PM MST
Astronomical Twilight 5:26 AM MST 6:14 PM MST
Moon 12:02 PM MST (12/9) No Moon Set
Length of Visible Light 10h 40m
Length of Day
9h 42m
First Quarter, 52% of the Moon is Illuminated
Dec 9
First Quarter
Dec 17
Full
Dec 25
Last Quarter
Jan 1
New
Jan 7
First Quarter

Hourly Weather History & Observations

Time (MST) Temp. Windchill Dew Point Humidity Pressure Visibility Wind Dir Wind Speed Gust Speed Precip Events Conditions
12:53 AM 18.0 °F - 1.0 °F 48% 29.98 in 10.0 mi Calm Calm - N/A   Clear
1:53 AM 14.0 °F 2.9 °F 3.9 °F 64% 30.01 in 10.0 mi WSW 8.1 mph - N/A   Overcast
2:53 AM 14.0 °F 2.9 °F 5.0 °F 67% 30.02 in 10.0 mi West 8.1 mph - N/A   Partly Cloudy
3:53 AM 12.9 °F 1.6 °F 3.9 °F 67% 30.04 in 10.0 mi WNW 8.1 mph - N/A   Clear
4:53 AM 10.0 °F 0.4 °F 1.9 °F 70% 30.09 in 10.0 mi NNE 5.8 mph - N/A   Partly Cloudy
5:53 AM 8.1 °F - 1.9 °F 76% 30.14 in 10.0 mi Calm Calm - N/A   Scattered Clouds
6:53 AM 10.0 °F -2.9 °F 5.0 °F 80% 30.14 in 10.0 mi West 9.2 mph - N/A   Clear
7:28 AM 12.0 °F -1.3 °F 7.0 °F 80% 29.98 in 10.0 mi WSW 10.4 mph - N/A   Scattered Clouds
7:37 AM 12.9 °F 2.6 °F 8.1 °F 81% 29.98 in 8.0 mi WSW 6.9 mph - N/A   Mostly Cloudy
7:53 AM 14.0 °F 1.2 °F 9.0 °F 80% 30.14 in 10.0 mi SW 10.4 mph - N/A   Overcast
8:34 AM 15.1 °F 2.5 °F 9.0 °F 77% 29.99 in 4.0 mi WSW 10.4 mph - 0.00 in Snow Light Snow
8:53 AM 15.1 °F 2.5 °F 9.0 °F 77% 30.14 in 3.0 mi SW 10.4 mph - 0.00 in Snow Light Snow
9:01 AM 16.0 °F 3.6 °F 9.0 °F 74% 29.99 in 5.0 mi SW 10.4 mph - 0.00 in Snow Light Snow
9:35 AM 16.0 °F 3.6 °F 9.0 °F 74% 30.01 in 10.0 mi SSW 10.4 mph - 0.00 in   Mostly Cloudy
9:53 AM 16.0 °F 1.7 °F 10.0 °F 77% 30.14 in 8.0 mi South 13.8 mph - 0.00 in   Overcast
10:30 AM 16.0 °F 4.4 °F 10.0 °F 77% 30.01 in 10.0 mi SSW 9.2 mph - N/A   Partly Cloudy
10:53 AM 18.0 °F 6.1 °F 10.0 °F 71% 30.13 in 10.0 mi SSW 10.4 mph - N/A   Clear
11:53 AM 21.0 °F 7.6 °F 12.0 °F 68% 30.07 in 10.0 mi SSW 15.0 mph - N/A   Clear
12:53 PM 24.1 °F 15.2 °F 12.9 °F 62% 30.06 in 10.0 mi South 8.1 mph - N/A   Clear
1:15 PM 28.0 °F 16.1 °F -4.0 °F 25% 29.94 in 10.0 mi West 16.1 mph 32.2 mph N/A   Clear
1:53 PM 28.0 °F 17.0 °F -7.1 °F 22% 30.05 in 10.0 mi West 13.8 mph - N/A   Clear
2:45 PM 28.9 °F 16.9 °F -9.9 °F 18% 29.96 in 10.0 mi NNW 17.3 mph 25.3 mph N/A   Clear
2:53 PM 28.9 °F 17.3 °F -11.0 °F 17% 30.06 in 10.0 mi NNW 16.1 mph 24.2 mph N/A   Clear
3:53 PM 28.0 °F 18.1 °F -11.0 °F 18% 30.11 in 10.0 mi NW 11.5 mph - N/A   Clear
4:53 PM 21.9 °F 13.4 °F -9.9 °F 24% 30.19 in 10.0 mi WNW 6.9 mph - N/A   Clear
5:53 PM 19.0 °F 13.9 °F -9.9 °F 27% 30.25 in 10.0 mi South 3.5 mph - N/A   Clear
6:53 PM 18.0 °F 11.1 °F -11.0 °F 27% 30.29 in 10.0 mi South 4.6 mph - N/A   Clear
7:53 PM 16.0 °F 10.4 °F -9.9 °F 31% 30.32 in 10.0 mi SSW 3.5 mph - N/A   Clear
8:53 PM 10.9 °F 1.4 °F -6.0 °F 47% 30.36 in 10.0 mi NNW 5.8 mph - N/A   Clear
9:53 PM 8.1 °F 1.4 °F -7.1 °F 50% 30.38 in 10.0 mi East 3.5 mph - N/A   Clear
10:53 PM 10.0 °F -3.7 °F -8.0 °F 44% 30.35 in 10.0 mi East 10.4 mph - N/A   Clear
11:53 PM 6.1 °F -7.8 °F -8.0 °F 53% 30.38 in 10.0 mi NNE 9.2 mph - N/A   Clear